This demonstration page uses our WeatherBlox Daily Observations layout. Learn more.

Left ArrowRight Arrow

39.29038, -76.61219

Hourly Observations for July 4, 2021

Temp ( °F °C ) Dew Point ( °F °C ) Humidity (%) Winds ( mph kmh ) Pressure ( in mb ) Visibility ( mi km ) Precip ( " mm )
12:54 am 00:54 Mostly Cloudy 65 18.3 61 16.1 87 87 W 5 7 29.87 1011 10 16 N/A
1:54 am 01:54 Partly Cloudy 63 17.2 60 15.6 90 90 W 3 6 29.86 1011 10 16 N/A
2:54 am 02:54 Mostly Clear 62 16.7 59 15 90 90 W 6 9 29.85 1011 10 16 N/A
3:54 am 03:54 Mostly Clear 62 16.7 59 15 90 90 W 5 7 29.85 1011 10 16 N/A
4:54 am 04:54 Partly Cloudy 62 16.7 59 15 90 90 W 5 7 29.85 1011 10 16 N/A
5:54 am 05:54 Mostly Sunny 61 16.1 59 15 93 93 WSW 5 7 29.87 1011 10 16 N/A
6:54 am 06:54 Mostly Sunny 64 17.8 61 16.1 90 90 W 5 7 29.87 1012 10 16 N/A
7:54 am 07:54 Partly Cloudy 69 20.6 62 16.7 78 78 WSW 7 11 29.89 1012 10 16 N/A
8:54 am 08:54 Partly Cloudy 72 22.2 62 16.7 71 71 W 6 9 29.90 1013 10 16 N/A
9:54 am 09:54 Mostly Sunny 76 24.4 61 16.1 60 60 WNW 9 15 29.89 1012 10 16 N/A
10:54 am 10:54 Mostly Sunny 79 26.1 61 16.1 54 54 W 8 13 29.89 1012 10 16 N/A
11:54 am 11:54 Partly Cloudy 82 27.8 59 15 46 46 VRB 6 9 29.90 1013 10 16 N/A
12:54 pm 12:54 Mostly Cloudy 82 27.8 58 14.4 44 44 VRB 5 7 29.90 1012 10 16 N/A
1:54 pm 13:54 Mostly Cloudy 84 28.9 60 15.6 44 44 WNW 5 7 29.89 1012 10 16 N/A
2:54 pm 14:54 Mostly Cloudy 82 27.8 59 15 46 46 N 6 9 29.89 1012 10 16 N/A
3:54 pm 15:54 Mostly Cloudy 81 27.2 62 16.7 53 53 ESE 8 13 29.88 1012 10 16 N/A
4:54 pm 16:54 Mostly Cloudy 82 27.8 63 17.2 53 53 S 7 11 29.88 1012 10 16 N/A
5:54 pm 17:54 Partly Cloudy 82 27.8 62 16.7 51 51 S 7 11 29.88 1012 10 16 N/A
6:54 pm 18:54 Partly Cloudy 80 26.7 62 16.7 54 54 SE 6 9 29.91 1013 10 16 N/A
7:54 pm 19:54 Mostly Sunny 79 26.1 63 17.2 58 58 SE 6 9 29.92 1013 10 16 N/A
8:54 pm 20:54 Mostly Clear 77 25 63 17.2 62 62 SSE 3 6 29.93 1014 10 16 N/A
9:54 pm 21:54 Mostly Clear 75 23.9 64 17.8 69 69 S 3 6 29.95 1014 10 16 N/A
10:54 pm 22:54 Mostly Clear 73 22.8 64 17.8 74 74 ESE 3 6 29.96 1015 9 14 N/A
11:54 pm 23:54 Mostly Clear 71 21.7 64 17.8 79 79 N N/A 29.98 1015 8 13 N/A

Powered by AerisWeather